Regional Weather Roundup
Issued by NWS

Home | Current Version | Previous Version | Text Only | Print | Product List | Glossary Off
Versions: 1 2 3 4 5 6 7 8 9 10 11 12 13 14 15 16 17 18 19 20 21 22 23 24 25 26 27 28 29 30 31 32 33 34 35 36 37 38 39 40 41 42 43 44 45 46 47 48 49 50

000
ASUS45 KCYS 071010
RWRWY

WYOMING REGIONAL WEATHER ROUNDUP
NATIONAL WEATHER SERVICE CHEYENNE WY
400 AM MDT TUE JUL 07 2015

NOTE:  "FAIR" INDICATES FEW OR NO CLOUDS BELOW 12,000 FEET
WITH NO SIGNIFICANT WEATHER AND/OR OBSTRUCTIONS TO VISIBILITY.

WYZ001-071100-
YELLOWSTONE NATIONAL PARK

CITY           SKY/WX    TMP DP  RH WIND       PRES   REMARKS
LK YELLOWSTONE   N/A     48  46  93 CALM      30.33S
W YELLOWSTONE  NOT AVBL

$$
WYZ002>013-054>058-071-098>099-071100-
NORTHERN WYOMING

CITY           SKY/WX    TMP DP  RH WIND       PRES   REMARKS
JACKSON        FAIR      50  48  93 CALM      30.24F
CODY           FAIR      55  52  88 S3        30.15S
GREYBULL       FAIR      59  49  69 CALM      30.10S
WORLAND        FAIR      62  53  72 S9        30.10S
SHERIDAN       FAIR      49  47  93 CALM      30.12S FOG
BUFFALO        FAIR      52  47  83 SW6       30.16S
GILLETTE       FAIR      54  51  90 S10       30.15F FOG
HULETT         FAIR      59  52  77 S10       30.18S
NEWCASTLE      PTSUNNY   59  50  72 E10       30.21F

$$
WYZ014>020-022>026-101>103-071100-
CENTRAL WYOMING

CITY           SKY/WX    TMP DP  RH WIND       PRES   REMARKS
BIG PINEY      CLOUDY    51  49  92 N7        30.27F
PINEDALE       CLOUDY    52  52 100 W5        30.27F
DUBOIS         PTSUNNY   50  46  87 NW9       30.27S
LANDER         MOCLDY    56  52  86 W3        30.17F
RIVERTON       MOCLDY    57  53  86 NW5       30.18S
CASPER         FAIR      54  51  90 NE3       30.18F FOG
DOUGLAS        FAIR      55  53  93 SE12      30.19S FOG

$$
WYZ021-027>030-104>119-071100-
SOUTHERN WYOMING

CITY           SKY/WX    TMP DP  RH WIND       PRES   REMARKS
EVANSTON       FAIR      55  48  77 E6        30.25S
KEMMERER       FAIR      48  46  93 N10       30.26F
FORT BRIDGER   PTSUNNY   52  52 100 N3        30.28F FOG
ROCK SPRINGS   LGT RAIN  55  52  89 E3        30.25S
DIXON          CLOUDY    56  52  86 CALM      30.24S
RAWLINS        FAIR      54  51  90 NE9       30.24F
SARATOGA       PTSUNNY   54  52  94 SE7       30.24F
LARAMIE        CLOUDY    52  51  97 S16       30.27F
CHEYENNE       CLOUDY    54  52  93 S10       30.27F FOG
TORRINGTON     CLOUDY    61  55  81 SE5       30.19F HAZE
PINE BLUFFS    CLOUDY    55  52  88 S7        30.25F FOG

$$



USA.gov is the U.S. government's official web portal to all federal, state and local government web resources and services.